�������l�o���
Date,Time,MP-1(��Sv/h),MP-2(��Sv/h),MP-3(��Sv/h),MP-4(��Sv/h),MP-5(��Sv/h),MP-6(��Sv/h),MP-7(��Sv/h),MP-8(��Sv/h),����,����(m/s),���J
2018/02/11,00:00,0.888,1.473,0.924,1.708,1.185,0.492,0.867,0.835,��쐼,5.0,�L
2018/02/11,00:10,0.887,1.471,0.922,1.707,1.185,0.490,0.868,0.836,��쐼,5.3,�L
2018/02/11,00:20,0.889,1.476,0.924,1.711,1.188,0.490,0.867,0.834,��쐼,4.6,�L
2018/02/11,00:30,0.888,1.472,0.923,1.709,1.185,0.490,0.867,0.835,�쐼,3.2,�L
2018/02/11,00:40,0.888,1.472,0.925,1.707,1.187,0.489,0.868,0.835,�쐼,3.5,�L
2018/02/11,00:50,0.888,1.472,0.922,1.708,1.187,0.490,0.866,0.833,�쐼,4.7,��
2018/02/11,01:00,0.887,1.470,0.922,1.708,1.185,0.491,0.866,0.833,�쐼,5.5,��
2018/02/11,01:10,0.886,1.472,0.921,1.710,1.186,0.489,0.868,0.835,�쐼,6.1,��
2018/02/11,01:20,0.886,1.472,0.924,1.711,1.188,0.488,0.868,0.835,���쐼,3.9,��
2018/02/11,01:30,0.886,1.470,0.922,1.708,1.184,0.488,0.867,0.834,�k�k��,2.3,��
2018/02/11,01:40,0.886,1.473,0.924,1.711,1.187,0.489,0.868,0.836,�k�k��,3.8,��
2018/02/11,01:50,0.888,1.470,0.923,1.709,1.186,0.489,0.865,0.836,�k��,6.3,��
2018/02/11,02:00,0.886,1.472,0.925,1.712,1.186,0.489,0.868,0.836,�k��,5.4,�L
2018/02/11,02:10,0.885,1.472,0.922,1.709,1.188,0.489,0.867,0.835,�k��,6.3,�L
2018/02/11,02:20,0.886,1.473,0.923,1.710,1.188,0.488,0.866,0.834,�k��,6.1,�L
2018/02/11,02:30,0.886,1.472,0.923,1.710,1.189,0.490,0.866,0.835,�k��,4.1,�L
2018/02/11,02:40,0.888,1.472,0.924,1.712,1.188,0.490,0.866,0.834,�k��,3.0,�L
2018/02/11,02:50,0.886,1.474,0.923,1.712,1.187,0.491,0.868,0.836,�k��,2.8,�L
2018/02/11,03:00,0.886,1.472,0.924,1.714,1.188,0.491,0.867,0.835,�k��,2.2,�L
2018/02/11,03:10,0.888,1.474,0.923,1.711,1.186,0.491,0.866,0.835,�k��,3.3,�L
2018/02/11,03:20,0.888,1.473,0.924,1.712,1.189,0.490,0.867,0.834,���k��,4.7,�L
2018/02/11,03:30,0.887,1.472,0.923,1.712,1.186,0.489,0.866,0.835,���k��,6.9,�L
2018/02/11,03:40,0.888,1.471,0.924,1.713,1.185,0.490,0.868,0.836,���k��,8.3,�L
2018/02/11,03:50,0.888,1.473,0.924,1.713,1.188,0.490,0.868,0.834,���k��,8.3,�L
2018/02/11,04:00,0.887,1.473,0.924,1.709,1.187,0.490,0.866,0.835,���k��,3.0,�L
2018/02/11,04:10,0.889,1.473,0.924,1.715,1.186,0.489,0.868,0.835,�k,3.3,��
2018/02/11,04:20,0.885,1.472,0.924,1.714,1.185,0.489,0.868,0.835,�k�k��,3.3,��
2018/02/11,04:30,0.888,1.470,0.922,1.712,1.187,0.490,0.867,0.836,�k��,2.0,��
2018/02/11,04:40,0.887,1.470,0.924,1.712,1.187,0.491,0.867,0.836,�k��,3.0,��
2018/02/11,04:50,0.885,1.471,0.922,1.712,1.187,0.493,0.867,0.835,�k�k��,3.2,��
2018/02/11,05:00,0.885,1.473,0.925,1.715,1.187,0.490,0.868,0.835,�k��,2.8,��
2018/02/11,05:10,0.889,1.473,0.922,1.714,1.187,0.490,0.867,0.835,�k��,3.5,��
2018/02/11,05:20,0.886,1.473,0.924,1.712,1.189,0.490,0.866,0.836,�k�k��,3.3,��
2018/02/11,05:30,0.885,1.473,0.922,1.714,1.184,0.490,0.867,0.836,�k�k��,3.9,��
2018/02/11,05:40,0.885,1.473,0.922,1.714,1.187,0.491,0.868,0.835,�k��,3.5,��
2018/02/11,05:50,0.887,1.473,0.925,1.715,1.186,0.488,0.868,0.835,�k��,4.1,��
2018/02/11,06:00,0.885,1.475,0.924,1.714,1.187,0.490,0.867,0.836,�k�k��,2.3,��
2018/02/11,06:10,0.888,1.474,0.922,1.714,1.186,0.489,0.867,0.837,�k�k��,4.1,��
2018/02/11,06:20,0.886,1.474,0.923,1.712,1.189,0.489,0.869,0.836,�k�k��,3.3,��
2018/02/11,06:30,0.887,1.470,0.923,1.716,1.187,0.490,0.867,0.836,�k�k��,4.6,��
2018/02/11,06:40,0.887,1.473,0.923,1.716,1.188,0.490,0.868,0.835,�k�k��,4.1,��
2018/02/11,06:50,0.886,1.471,0.923,1.712,1.188,0.490,0.866,0.835,�k��,4.6,��
2018/02/11,07:00,0.886,1.473,0.921,1.712,1.188,0.490,0.868,0.836,�k��,4.2,��
2018/02/11,07:10,0.887,1.473,0.923,1.712,1.186,0.491,0.868,0.835,�k��,6.3,��
2018/02/11,07:20,0.886,1.471,0.924,1.715,1.186,0.487,0.869,0.835,�k��,6.6,��
2018/02/11,07:30,0.886,1.471,0.923,1.713,1.188,0.490,0.869,0.835,�k��,5.4,��
2018/02/11,07:40,0.886,1.473,0.924,1.713,1.188,0.488,0.867,0.837,�k��,6.5,��
2018/02/11,07:50,0.885,1.471,0.924,1.717,1.187,0.489,0.867,0.836,�k��,6.9,��
2018/02/11,08:00,0.885,1.471,0.924,1.714,1.189,0.490,0.870,0.836,�k��,4.3,��
2018/02/11,08:10,0.887,1.475,0.924,1.716,1.187,0.490,0.868,0.837,�k��,6.0,��
2018/02/11,08:20,0.887,1.474,0.923,1.716,1.189,0.488,0.867,0.835,�k��,8.1,��
2018/02/11,08:30,0.887,1.474,0.924,1.717,1.190,0.489,0.869,0.836,�k�k��,6.3,��
2018/02/11,08:40,0.890,1.474,0.924,1.716,1.187,0.491,0.868,0.834,�k�k��,6.0,��
2018/02/11,08:50,0.888,1.474,0.924,1.717,1.189,0.490,0.869,0.838,�k,5.4,��
2018/02/11,09:00,0.890,1.477,0.923,1.717,1.189,0.490,0.868,0.835,�k,4.7,��
2018/02/11,09:10,0.887,1.477,0.922,1.717,1.187,0.489,0.866,0.837,�k�k��,5.8,��
2018/02/11,09:20,0.890,1.479,0.925,1.719,1.189,0.491,0.868,0.837,�k�k��,3.9,��
2018/02/11,09:30,0.889,1.474,0.924,1.715,1.190,0.492,0.868,0.838,�k��,4.2,��
2018/02/11,09:40,0.889,1.475,0.923,1.718,1.187,0.491,0.868,0.837,�k��,5.5,��
2018/02/11,09:50,0.889,1.475,0.924,1.718,1.191,0.490,0.868,0.838,�k�k��,3.5,��
2018/02/11,10:00,0.889,1.472,0.924,1.722,1.192,0.492,0.870,0.836,�쐼,1.7,��
2018/02/11,10:10,0.891,1.477,0.927,1.721,1.188,0.491,0.868,0.837,-,CALM,��
2018/02/11,10:20,0.891,1.475,0.924,1.720,1.191,0.490,0.869,0.839,���k��,9.5,��
2018/02/11,10:30,0.890,1.475,0.923,1.721,1.188,0.491,0.868,0.838,��,7.6,��
2018/02/11,10:40,0.890,1.477,0.924,1.722,1.190,0.490,0.869,0.838,���k��,13.5,��
2018/02/11,10:50,0.891,1.477,0.926,1.721,1.190,0.491,0.870,0.840,���k��,16.3,��
2018/02/11,11:00,0.891,1.477,0.925,1.724,1.191,0.491,0.869,0.838,��,12.2,��
2018/02/11,11:10,0.891,1.476,0.925,1.719,1.191,0.489,0.869,0.839,���k��,15.2,��
2018/02/11,11:20,0.890,1.475,0.926,1.723,1.188,0.490,0.868,0.836,���k��,12.1,��
2018/02/11,11:30,0.889,1.477,0.927,1.724,1.193,0.491,0.869,0.838,���k��,15.0,��
2018/02/11,11:40,0.890,1.476,0.927,1.726,1.191,0.491,0.869,0.835,��,11.1,��
2018/02/11,11:50,0.891,1.476,0.927,1.723,1.191,0.489,0.869,0.837,��,11.7,��
2018/02/11,12:00,0.889,1.476,0.928,1.723,1.192,0.491,0.870,0.837,���k��,13.3,��
2018/02/11,12:10,0.889,1.477,0.926,1.724,1.192,0.490,0.869,0.838,���k��,13.5,��
2018/02/11,12:20,0.891,1.477,0.925,1.723,1.191,0.491,0.869,0.839,���k��,12.7,��
2018/02/11,12:30,0.888,1.475,0.925,1.725,1.190,0.493,0.869,0.840,���k��,13.3,��
2018/02/11,12:40,0.890,1.477,0.927,1.725,1.191,0.493,0.870,0.839,���k��,14.1,��
2018/02/11,12:50,0.889,1.477,0.926,1.724,1.191,0.492,0.870,0.838,���k��,14.1,��
2018/02/11,13:00,0.892,1.477,0.927,1.725,1.192,0.491,0.868,0.837,���k��,14.1,��
2018/02/11,13:10,0.890,1.480,0.928,1.726,1.191,0.493,0.869,0.839,���k��,13.8,��
2018/02/11,13:20,0.891,1.479,0.925,1.727,1.192,0.492,0.869,0.838,���k��,11.9,��
2018/02/11,13:30,0.892,1.477,0.926,1.727,1.190,0.491,0.868,0.837,���k��,13.6,��
2018/02/11,13:40,0.892,1.479,0.926,1.724,1.190,0.491,0.867,0.834,���k��,10.9,��
2018/02/11,13:50,0.890,1.476,0.926,1.726,1.193,0.490,0.869,0.834,���k��,12.5,��
2018/02/11,14:00,0.888,1.478,0.927,1.731,1.193,0.492,0.870,0.836,��,9.2,��
2018/02/11,14:10,0.889,1.480,0.927,1.728,1.192,0.492,0.867,0.836,���k��,13.5,��
2018/02/11,14:20,0.889,1.479,0.928,1.728,1.190,0.492,0.867,0.837,��,10.2,��
2018/02/11,14:30,0.889,1.477,0.927,1.727,1.192,0.492,0.869,0.836,���k��,11.0,��
2018/02/11,14:40,0.890,1.474,0.927,1.728,1.190,0.492,0.867,0.836,���k��,14.1,��
2018/02/11,14:50,0.889,1.476,0.929,1.726,1.193,0.491,0.868,0.836,���k��,14.9,��
2018/02/11,15:00,0.892,1.478,0.927,1.728,1.192,0.493,0.869,0.833,���k��,12.5,��
2018/02/11,15:10,0.889,1.479,0.927,1.731,1.194,0.491,0.870,0.833,���k��,16.0,��
2018/02/11,15:20,0.889,1.479,0.926,1.728,1.192,0.491,0.869,0.836,���k��,17.7,��
2018/02/11,15:30,0.891,1.482,0.929,1.723,1.190,0.492,0.868,0.836,���k��,14.7,��
2018/02/11,15:40,0.887,1.483,0.928,1.727,1.190,0.491,0.869,0.838,���k��,15.8,��
2018/02/11,15:50,0.888,1.482,0.927,1.729,1.195,0.491,0.870,0.837,���k��,13.9,��
2018/02/11,16:00,0.888,1.482,0.927,1.730,1.192,0.490,0.868,0.837,���k��,13.6,��
2018/02/11,16:10,0.890,1.480,0.929,1.728,1.193,0.491,0.869,0.839,���k��,13.5,��
2018/02/11,16:20,0.889,1.481,0.928,1.729,1.192,0.490,0.869,0.836,���k��,13.8,��
2018/02/11,16:30,0.891,1.480,0.926,1.725,1.193,0.490,0.869,0.839,���k��,14.2,��
2018/02/11,16:40,0.889,1.481,0.927,1.729,1.193,0.489,0.868,0.836,���k��,16.4,��
2018/02/11,16:50,0.890,1.479,0.925,1.727,1.194,0.489,0.868,0.838,���k��,12.4,��
2018/02/11,17:00,0.888,1.481,0.923,1.723,1.192,0.488,0.868,0.837,���k��,13.5,��
2018/02/11,17:10,0.887,1.478,0.922,1.726,1.192,0.488,0.870,0.838,���k��,11.4,��
2018/02/11,17:20,0.887,1.480,0.921,1.726,1.194,0.486,0.869,0.838,���k��,11.6,��
2018/02/11,17:30,0.887,1.481,0.924,1.725,1.191,0.487,0.866,0.835,���k��,12.1,��
2018/02/11,17:40,0.887,1.481,0.924,1.724,1.193,0.487,0.869,0.835,���k��,14.1,��
2018/02/11,17:50,0.887,1.481,0.922,1.724,1.192,0.489,0.869,0.837,��,13.6,��
2018/02/11,18:00,0.886,1.480,0.923,1.724,1.195,0.486,0.868,0.838,���k��,13.9,��
2018/02/11,18:10,0.885,1.479,0.924,1.728,1.194,0.486,0.868,0.836,���k��,13.8,��
2018/02/11,18:20,0.887,1.480,0.925,1.727,1.195,0.487,0.870,0.837,���k��,12.7,��
2018/02/11,18:30,0.887,1.480,0.922,1.729,1.193,0.489,0.869,0.838,���k��,14.4,��
2018/02/11,18:40,0.886,1.483,0.922,1.727,1.194,0.486,0.870,0.838,��,14.2,��
2018/02/11,18:50,0.887,1.477,0.922,1.729,1.192,0.488,0.868,0.835,���k��,14.7,��
2018/02/11,19:00,0.886,1.480,0.923,1.730,1.193,0.488,0.869,0.835,���k��,13.8,��
2018/02/11,19:10,0.887,1.479,0.922,1.725,1.192,0.488,0.868,0.836,�k��,13.5,��
2018/02/11,19:20,0.887,1.480,0.925,1.724,1.191,0.488,0.866,0.838,���k��,15.2,��
2018/02/11,19:30,0.886,1.482,0.925,1.727,1.194,0.488,0.868,0.835,�k��,15.5,��
2018/02/11,19:40,0.885,1.480,0.921,1.730,1.194,0.487,0.867,0.835,�k��,10.8,��
2018/02/11,19:50,0.887,1.480,0.923,1.725,1.195,0.485,0.866,0.837,���k��,11.0,��
2018/02/11,20:00,0.887,1.478,0.922,1.727,1.191,0.488,0.868,0.834,�k��,8.8,��
2018/02/11,20:10,0.886,1.479,0.924,1.726,1.193,0.487,0.865,0.836,���k��,8.7,��
2018/02/11,20:20,0.886,1.478,0.924,1.728,1.193,0.488,0.867,0.837,���k��,7.8,��
2018/02/11,20:30,0.888,1.482,0.923,1.728,1.194,0.486,0.868,0.836,���k��,7.3,��
2018/02/11,20:40,0.886,1.478,0.924,1.726,1.194,0.489,0.868,0.837,���k��,7.0,��
2018/02/11,20:50,0.887,1.479,0.926,1.728,1.192,0.489,0.866,0.836,���k��,4.8,��
2018/02/11,21:00,0.886,1.480,0.924,1.727,1.194,0.488,0.869,0.838,�k��,3.7,��
2018/02/11,21:10,0.887,1.481,0.925,1.726,1.192,0.489,0.866,0.836,�k,2.0,��
2018/02/11,21:20,0.886,1.481,0.924,1.728,1.194,0.489,0.867,0.835,�k,1.8,��
2018/02/11,21:30,0.886,1.479,0.926,1.727,1.192,0.488,0.868,0.836,-,CALM,��
2018/02/11,21:40,0.885,1.476,0.924,1.725,1.192,0.488,0.866,0.837,�k,2.0,��
2018/02/11,21:50,0.885,1.479,0.922,1.728,1.190,0.488,0.867,0.837,�k��,4.3,��
2018/02/11,22:00,0.887,1.480,0.925,1.726,1.188,0.486,0.868,0.836,�k�k��,0.9,��
2018/02/11,22:10,0.885,1.479,0.923,1.724,1.190,0.487,0.867,0.836,���k��,2.0,��
2018/02/11,22:20,0.887,1.479,0.922,1.725,1.191,0.487,0.867,0.837,���k��,3.3,��
2018/02/11,22:30,0.886,1.480,0.924,1.725,1.191,0.489,0.867,0.835,��,1.5,��
2018/02/11,22:40,0.885,1.478,0.924,1.725,1.187,0.488,0.868,0.836,��,5.3,��
2018/02/11,22:50,0.884,1.479,0.923,1.726,1.191,0.486,0.867,0.837,���k��,5.0,��
2018/02/11,23:00,0.886,1.476,0.922,1.726,1.187,0.488,0.867,0.837,���k��,5.8,��
2018/02/11,23:10,0.886,1.477,0.924,1.724,1.188,0.487,0.867,0.838,��,4.6,��
2018/02/11,23:20,0.884,1.478,0.922,1.725,1.187,0.487,0.868,0.836,��,4.4,��
2018/02/11,23:30,0.886,1.476,0.922,1.725,1.189,0.486,0.868,0.835,���k��,3.4,��
2018/02/11,23:40,0.883,1.477,0.922,1.723,1.185,0.485,0.868,0.836,���k��,5.4,��
2018/02/11,23:50,0.884,1.480,0.924,1.724,1.187,0.487,0.867,0.836,��,9.0,��
